カタログに戻る

CZ-6A DEB

運用中SSO
NORAD 54550·DEBRIS·🇨🇳 China

打ち上げ Nov 11, 2022 から Taiyuan Satellite Launch Center

Loading…

次のパス (今後24時間)

TLE

最新Source: Space-Track

元期: Sep 14, 2026, 09:31 UTC

1 54550U 22151LA  26257.39680179  .00000589  00000-0  20646-3 0  9998
2 54550  98.6577 296.2040 0065790  47.7926 312.8819 14.37532016200846

AllMySatでCZ-6A DEBをリアルタイム追跡

Download on the App Store